Tracking 17632 objects as of 1-May-2016
HD Live streaming from Space Station
objects crossing your sky now

BREEZE-M R/B

Track BREEZE-M R/B now!


NORAD ID: 28925
Int'l Code: 2005-052B
Perigee: 6,197.3 km
Apogee: 35,344.3 km
Inclination: 19.4 °
Period: 741.7 minutes
Semi major axis: 27141 km
RCS: 0.6439 m2 (medium)
Launch date: December 29, 2005
Source: Commonwealth of Independent States (former USSR) (CIS)
Launch site: TYURATAM MISSILE AND SPACE COMPLEX (TTMTR)

Note: This is a ROCKET BODY
Your satellite tracking list
Your tracking list is empty





NASA's NSSDC Master Catalog

Two Line Element Set (TLE):
1 28925U 05052B   16121.84867477 -.00000207  00000-0  00000+0 0  9999
2 28925  19.4059  46.3096 5369378 113.6205 156.4907  1.94153411 73318
Source of the keplerian elements: AFSPC

N2YO: 483